Location: Blue Pit
(43.1414°N, 93.2208°W)
Time: 23:25:47
(UTC+00:00)

SMAP - Pass Details

Date: 18 November 2025
Orbit: 681 x 683 km, 98.1° (Epoch: 14 December)

Event Time Altitude Azimuth Distance (km) Brightness Sun altitude
Rises 23:07:17 0° 150° (SSE) 3,033 6.3 -4.4°
Reaches altitude 10° 23:09:34 10° 145° (SE) 2,122 5.5 -4.8°
Maximum altitude 23:14:01 48° 71° (ENE) 895 3.3 -5.5°
Drops below altitude 10° 23:18:30 10° 358° (N) 2,136 5.4 -6.3°
Sets 23:20:48 0° 353° (N) 3,056 6.3 -6.7°
